Wetterdaten: Freitag, 17.04.2015
Datum Zeit Auen-Temp. Temp gefhlt Luftfeuchte Luftdruck Regen Wind Richtung Richtung Taupunkt Windben
17.04.2015 00:00 13,3 C 13,4 C 50 % 1015,8 hPa 0,0 mm 3,4 km/h (1 Bft) NO 45 3,1 C 3,6 km/h (1 Bft)
17.04.2015 00:05 13,3 C 13,3 C 51 % 1015,8 hPa 0,0 mm 3,4 km/h (1 Bft) W-SW 247 3,4 C 6,2 km/h (2 Bft)
17.04.2015 00:10 13,0 C 13,1 C 51 % 1015,8 hPa 0,0 mm 2,6 km/h (1 Bft) NW 315 3,1 C 4,4 km/h (1 Bft)
17.04.2015 00:15 13,3 C 13,2 C 51 % 1015,8 hPa 0,0 mm 2,6 km/h (1 Bft) S 180 3,4 C 8,3 km/h (2 Bft)
17.04.2015 00:20 13,3 C 13,3 C 51 % 1015,8 hPa 0,0 mm 4,4 km/h (1 Bft) S 180 3,4 C 6,2 km/h (2 Bft)
17.04.2015 00:25 13,5 C 13,4 C 51 % 1015,8 hPa 0,0 mm 7,0 km/h (2 Bft) SO 135 3,6 C 18,4 km/h (3 Bft)
17.04.2015 00:30 13,1 C 13,2 C 51 % 1015,8 hPa 0,0 mm 6,5 km/h (2 Bft) S 180 3,2 C 4,7 km/h (1 Bft)
17.04.2015 00:35 13,0 C 13,1 C 52 % 1015,8 hPa 0,0 mm 4,4 km/h (1 Bft) W-SW 247 3,4 C 0,0 km/h (0 Bft)
17.04.2015 00:40 13,0 C 13,0 C 52 % 1015,8 hPa 0,0 mm 3,9 km/h (1 Bft) NW 315 3,4 C 6,0 km/h (2 Bft)
17.04.2015 00:45 13,2 C 13,1 C 53 % 1015,7 hPa 0,0 mm 3,9 km/h (1 Bft) SW 225 3,8 C 6,7 km/h (2 Bft)
17.04.2015 00:50 13,2 C 13,1 C 52 % 1015,7 hPa 0,0 mm 5,4 km/h (1 Bft) W 270 3,6 C 6,2 km/h (2 Bft)
17.04.2015 00:55 13,0 C 13,0 C 53 % 1015,7 hPa 0,0 mm 4,1 km/h (1 Bft) SW 225 3,6 C 5,4 km/h (1 Bft)
17.04.2015 01:00 12,8 C 12,8 C 55 % 1015,7 hPa 0,0 mm 2,6 km/h (1 Bft) W 270 4,0 C 3,4 km/h (1 Bft)
17.04.2015 01:05 12,4 C 12,4 C 56 % 1015,9 hPa 0,0 mm 3,9 km/h (1 Bft) NW 315 3,9 C 2,8 km/h (1 Bft)
17.04.2015 01:10 12,4 C 12,3 C 56 % 1015,9 hPa 0,0 mm 3,9 km/h (1 Bft) S 180 3,9 C 5,7 km/h (1 Bft)
17.04.2015 01:15 12,2 C 12,0 C 57 % 1015,9 hPa 0,0 mm 2,1 km/h (1 Bft) SO 135 3,9 C 4,7 km/h (1 Bft)
17.04.2015 01:20 12,1 C 11,9 C 58 % 1015,9 hPa 0,0 mm 1,8 km/h (1 Bft) O-SO 112 4,1 C 0,0 km/h (0 Bft)
17.04.2015 01:25 11,9 C 11,7 C 61 % 1015,6 hPa 0,0 mm 4,1 km/h (1 Bft) S-SO 157 4,6 C 6,5 km/h (2 Bft)
17.04.2015 01:30 11,6 C 11,3 C 62 % 1015,6 hPa 0,0 mm 5,4 km/h (1 Bft) S 180 4,6 C 6,7 km/h (2 Bft)
17.04.2015 01:35 11,1 C 10,7 C 68 % 1015,6 hPa 0,0 mm 3,4 km/h (1 Bft) S 180 5,4 C 3,1 km/h (1 Bft)
17.04.2015 01:40 11,2 C 10,7 C 69 % 1015,6 hPa 0,0 mm 1,8 km/h (1 Bft) O-SO 112 5,7 C 4,1 km/h (1 Bft)
17.04.2015 01:45 11,3 C 10,9 C 67 % 1015,3 hPa 0,0 mm 2,8 km/h (1 Bft) S-SW 202 5,4 C 2,8 km/h (1 Bft)
17.04.2015 01:50 11,1 C 10,8 C 68 % 1015,3 hPa 0,0 mm 3,4 km/h (1 Bft) N-NW 337 5,4 C 5,4 km/h (1 Bft)
17.04.2015 01:55 10,9 C 10,7 C 71 % 1015,3 hPa 0,0 mm 2,1 km/h (1 Bft) S 180 5,9 C 0,0 km/h (0 Bft)
17.04.2015 02:00 11,0 C 10,8 C 69 % 1015,3 hPa 0,0 mm 2,3 km/h (1 Bft) S 180 5,5 C 4,9 km/h (1 Bft)
17.04.2015 02:05 10,9 C 10,7 C 69 % 1015,5 hPa 0,0 mm 3,1 km/h (1 Bft) S-SO 157 5,4 C 0,0 km/h (0 Bft)
17.04.2015 02:10 10,5 C 10,4 C 70 % 1015,5 hPa 0,0 mm 2,6 km/h (1 Bft) O-NO 67 5,3 C 0,0 km/h (0 Bft)
17.04.2015 02:15 10,3 C 10,1 C 75 % 1015,5 hPa 0,0 mm 1,3 km/h (1 Bft) S-SO 157 6,1 C 2,8 km/h (1 Bft)
17.04.2015 02:20 10,3 C 10,0 C 76 % 1015,5 hPa 0,0 mm 2,1 km/h (1 Bft) SO 135 6,3 C 7,3 km/h (2 Bft)
17.04.2015 02:25 10,4 C 10,1 C 76 % 1015,1 hPa 0,0 mm 3,1 km/h (1 Bft) SO 135 6,4 C 6,0 km/h (2 Bft)
17.04.2015 02:30 10,2 C 10,1 C 77 % 1015,1 hPa 0,0 mm 4,1 km/h (1 Bft) SO 135 6,4 C 2,6 km/h (1 Bft)
17.04.2015 02:35 9,9 C 9,9 C 76 % 1015,1 hPa 0,0 mm 2,1 km/h (1 Bft) S 180 5,9 C 0,0 km/h (0 Bft)
17.04.2015 02:40 9,8 C 9,7 C 76 % 1015,1 hPa 0,0 mm 1,0 km/h (0 Bft) SO 135 5,8 C 2,8 km/h (1 Bft)
17.04.2015 02:45 9,9 C 9,8 C 76 % 1014,9 hPa 0,0 mm 0,8 km/h (0 Bft) S 180 5,9 C 2,6 km/h (1 Bft)
17.04.2015 02:50 10,1 C 10,0 C 75 % 1014,9 hPa 0,0 mm 1,0 km/h (0 Bft) O 90 5,9 C 0,0 km/h (0 Bft)
17.04.2015 02:55 9,9 C 9,9 C 77 % 1014,9 hPa 0,0 mm 0,3 km/h (0 Bft) O-SO 112 6,1 C 0,0 km/h (0 Bft)
17.04.2015 03:00 10,1 C 10,0 C 77 % 1014,9 hPa 0,0 mm 0,8 km/h (0 Bft) S-SO 157 6,3 C 3,1 km/h (1 Bft)
17.04.2015 03:05 10,3 C 10,1 C 76 % 1014,7 hPa 0,0 mm 0,8 km/h (0 Bft) SO 135 6,3 C 0,0 km/h (0 Bft)
17.04.2015 03:10 10,4 C 10,3 C 75 % 1014,7 hPa 0,0 mm 0,3 km/h (0 Bft) SO 135 6,2 C 0,0 km/h (0 Bft)
17.04.2015 03:15 10,2 C 10,1 C 74 % 1014,7 hPa 0,0 mm 0,0 km/h (0 Bft) O-SO 112 5,8 C 0,0 km/h (0 Bft)
17.04.2015 03:20 10,0 C 9,9 C 73 % 1014,7 hPa 0,0 mm 0,0 km/h (0 Bft) O 90 5,4 C 0,0 km/h (0 Bft)
17.04.2015 03:25 10,1 C 10,0 C 73 % 1014,4 hPa 0,0 mm 0,0 km/h (0 Bft) S-SW 202 5,5 C 6,2 km/h (2 Bft)
17.04.2015 03:30 10,2 C 10,1 C 73 % 1014,4 hPa 0,0 mm 2,8 km/h (1 Bft) S-SW 202 5,6 C 9,6 km/h (2 Bft)
17.04.2015 03:35 10,2 C 10,1 C 73 % 1014,4 hPa 0,0 mm 4,7 km/h (1 Bft) SO 135 5,6 C 0,0 km/h (0 Bft)
17.04.2015 03:40 10,1 C 10,0 C 74 % 1014,4 hPa 0,0 mm 2,3 km/h (1 Bft) O-SO 112 5,7 C 0,0 km/h (0 Bft)
17.04.2015 03:45 9,9 C 9,9 C 74 % 1014,4 hPa 0,0 mm 0,0 km/h (0 Bft) NO 45 5,5 C 3,1 km/h (1 Bft)
17.04.2015 03:50 9,9 C 9,8 C 74 % 1014,4 hPa 0,0 mm 0,3 km/h (0 Bft) N-NW 337 5,5 C 0,0 km/h (0 Bft)
17.04.2015 03:55 10,0 C 9,9 C 74 % 1014,4 hPa 0,0 mm 0,8 km/h (0 Bft) W 270 5,6 C 6,0 km/h (2 Bft)
17.04.2015 04:00 10,1 C 10,0 C 74 % 1014,4 hPa 0,0 mm 2,1 km/h (1 Bft) W 270 5,7 C 4,1 km/h (1 Bft)
17.04.2015 04:05 10,1 C 10,0 C 74 % 1014,7 hPa 0,0 mm 2,8 km/h (1 Bft) O 90 5,7 C 0,0 km/h (0 Bft)
17.04.2015 04:10 10,0 C 9,8 C 74 % 1014,7 hPa 0,0 mm 1,3 km/h (1 Bft) O 90 5,6 C 0,0 km/h (0 Bft)
17.04.2015 04:15 10,0 C 9,7 C 76 % 1014,7 hPa 0,0 mm 0,0 km/h (0 Bft) SO 135 6,0 C 0,0 km/h (0 Bft)
17.04.2015 04:20 10,0 C 9,7 C 76 % 1014,7 hPa 0,0 mm 0,3 km/h (0 Bft) O-SO 112 6,0 C 0,0 km/h (0 Bft)
17.04.2015 04:25 10,1 C 9,8 C 76 % 1014,4 hPa 0,0 mm 0,3 km/h (0 Bft) SO 135 6,1 C 0,0 km/h (0 Bft)
17.04.2015 04:30 10,0 C 9,8 C 75 % 1014,4 hPa 0,0 mm 0,0 km/h (0 Bft) S-SO 157 5,8 C 0,0 km/h (0 Bft)
17.04.2015 04:35 10,0 C 9,8 C 76 % 1014,4 hPa 0,0 mm 0,0 km/h (0 Bft) O-NO 67 6,0 C 0,0 km/h (0 Bft)
17.04.2015 04:40 10,0 C 9,8 C 76 % 1014,4 hPa 0,0 mm 0,0 km/h (0 Bft) NO 45 6,0 C 0,0 km/h (0 Bft)
17.04.2015 04:45 10,0 C 9,9 C 75 % 1014,2 hPa 0,0 mm 0,0 km/h (0 Bft) O-NO 67 5,8 C 0,0 km/h (0 Bft)
17.04.2015 04:50 10,1 C 9,9 C 75 % 1014,2 hPa 0,0 mm 0,0 km/h (0 Bft) O-NO 67 5,9 C 0,0 km/h (0 Bft)
17.04.2015 04:55 9,9 C 9,8 C 75 % 1014,2 hPa 0,0 mm 0,5 km/h (0 Bft) W-NW 292 5,7 C 4,1 km/h (1 Bft)
17.04.2015 05:00 9,8 C 9,7 C 76 % 1014,2 hPa 0,0 mm 1,6 km/h (1 Bft) SO 135 5,8 C 0,0 km/h (0 Bft)
17.04.2015 05:05 9,6 C 9,4 C 79 % 1014,4 hPa 0,0 mm 2,6 km/h (1 Bft) S-SO 157 6,1 C 2,8 km/h (1 Bft)
17.04.2015 05:10 9,5 C 9,3 C 80 % 1014,4 hPa 0,0 mm 2,3 km/h (1 Bft) SW 225 6,2 C 7,0 km/h (2 Bft)
17.04.2015 05:15 10,0 C 9,6 C 79 % 1014,4 hPa 0,0 mm 5,4 km/h (1 Bft) S 180 6,5 C 5,2 km/h (1 Bft)
17.04.2015 05:20 10,1 C 9,5 C 79 % 1014,4 hPa 0,7 mm 7,8 km/h (2 Bft) SW 225 6,6 C 8,0 km/h (2 Bft)
17.04.2015 05:25 10,1 C 9,6 C 79 % 1014,2 hPa 0,0 mm 7,3 km/h (2 Bft) S 180 6,6 C 7,0 km/h (2 Bft)
17.04.2015 05:30 10,2 C 9,7 C 79 % 1014,2 hPa 0,0 mm 7,5 km/h (2 Bft) SW 225 6,7 C 11,7 km/h (2 Bft)
17.04.2015 05:35 10,3 C 9,7 C 79 % 1014,2 hPa 0,0 mm 9,8 km/h (2 Bft) W-NW 292 6,8 C 10,9 km/h (2 Bft)
17.04.2015 05:40 10,1 C 9,8 C 78 % 1014,2 hPa 0,0 mm 8,5 km/h (2 Bft) SW 225 6,4 C 6,0 km/h (2 Bft)
17.04.2015 05:45 9,9 C 9,7 C 79 % 1014,1 hPa 0,0 mm 3,9 km/h (1 Bft) SW 225 6,4 C 5,4 km/h (1 Bft)
17.04.2015 05:50 9,7 C 9,6 C 80 % 1014,1 hPa 0,0 mm 1,8 km/h (1 Bft) SO 135 6,4 C 0,0 km/h (0 Bft)
17.04.2015 05:55 9,6 C 9,5 C 81 % 1014,1 hPa 0,0 mm 0,8 km/h (0 Bft) SO 135 6,5 C 0,0 km/h (0 Bft)
17.04.2015 06:00 9,6 C 9,4 C 81 % 1014,1 hPa 0,0 mm 0,3 km/h (0 Bft) SO 135 6,5 C 0,0 km/h (0 Bft)
17.04.2015 06:05 9,7 C 9,5 C 81 % 1014,4 hPa 0,0 mm 3,9 km/h (1 Bft) S-SW 202 6,6 C 9,1 km/h (2 Bft)
17.04.2015 06:10 9,7 C 9,3 C 82 % 1014,4 hPa 0,7 mm 8,5 km/h (2 Bft) SW 225 6,8 C 13,5 km/h (3 Bft)
17.04.2015 06:15 9,7 C 9,2 C 82 % 1014,4 hPa 0,0 mm 10,4 km/h (2 Bft) S 180 6,8 C 21,2 km/h (4 Bft)
17.04.2015 06:20 9,6 C 9,1 C 82 % 1014,4 hPa 0,0 mm 9,6 km/h (2 Bft) SW 225 6,7 C 18,1 km/h (3 Bft)
17.04.2015 06:25 9,6 C 9,1 C 83 % 1014,4 hPa 0,7 mm 9,3 km/h (2 Bft) S-SW 202 6,9 C 24,9 km/h (4 Bft)
17.04.2015 06:30 9,6 C 9,0 C 83 % 1014,4 hPa 0,0 mm 10,1 km/h (2 Bft) W-SW 247 6,9 C 10,1 km/h (2 Bft)
17.04.2015 06:35 9,6 C 9,1 C 83 % 1014,4 hPa 0,0 mm 9,6 km/h (2 Bft) W-SW 247 6,9 C 15,0 km/h (3 Bft)
17.04.2015 06:40 9,6 C 9,0 C 84 % 1014,4 hPa 0,7 mm 11,7 km/h (2 Bft) S 180 7,0 C 11,9 km/h (2 Bft)
17.04.2015 06:45 9,6 C 9,1 C 84 % 1014,3 hPa 0,0 mm 14,0 km/h (3 Bft) SW 225 7,0 C 15,8 km/h (3 Bft)
17.04.2015 06:50 9,6 C 8,9 C 84 % 1014,3 hPa 0,7 mm 14,2 km/h (3 Bft) W-SW 247 7,0 C 17,1 km/h (3 Bft)
17.04.2015 06:55 9,4 C 8,9 C 84 % 1014,3 hPa 0,0 mm 10,9 km/h (2 Bft) S-SW 202 6,8 C 26,2 km/h (4 Bft)
17.04.2015 07:00 9,3 C 8,9 C 84 % 1014,3 hPa 0,0 mm 8,3 km/h (2 Bft) SW 225 6,7 C 10,6 km/h (2 Bft)
17.04.2015 07:05 9,3 C 8,8 C 84 % 1014,1 hPa 0,0 mm 9,3 km/h (2 Bft) W-SW 247 6,7 C 12,2 km/h (2 Bft)
17.04.2015 07:10 9,2 C 8,8 C 84 % 1014,1 hPa 0,0 mm 9,1 km/h (2 Bft) SW 225 6,6 C 12,2 km/h (2 Bft)
17.04.2015 07:15 9,2 C 8,9 C 84 % 1014,1 hPa 0,7 mm 7,3 km/h (2 Bft) W-SW 247 6,6 C 3,4 km/h (1 Bft)
17.04.2015 07:20 9,1 C 8,9 C 84 % 1014,1 hPa 0,0 mm 4,7 km/h (1 Bft) S-SW 202 6,5 C 2,6 km/h (1 Bft)
17.04.2015 07:25 9,1 C 8,9 C 84 % 1014,4 hPa 0,0 mm 2,8 km/h (1 Bft) SW 225 6,5 C 7,8 km/h (2 Bft)
17.04.2015 07:30 9,2 C 9,0 C 84 % 1014,4 hPa 0,0 mm 3,6 km/h (1 Bft) S-SO 157 6,6 C 7,0 km/h (2 Bft)
17.04.2015 07:35 9,4 C 9,1 C 84 % 1014,4 hPa 0,0 mm 6,7 km/h (2 Bft) S 180 6,8 C 10,9 km/h (2 Bft)
17.04.2015 07:40 9,5 C 9,1 C 84 % 1014,4 hPa 0,0 mm 7,8 km/h (2 Bft) SW 225 6,9 C 8,8 km/h (2 Bft)
17.04.2015 07:45 9,6 C 9,1 C 84 % 1014,4 hPa 0,0 mm 9,8 km/h (2 Bft) S 180 7,0 C 9,3 km/h (2 Bft)
17.04.2015 07:50 9,6 C 9,1 C 84 % 1014,4 hPa 0,0 mm 10,1 km/h (2 Bft) S 180 7,0 C 12,9 km/h (3 Bft)
17.04.2015 07:55 9,6 C 9,1 C 84 % 1014,4 hPa 0,0 mm 10,6 km/h (2 Bft) W-SW 247 7,0 C 13,5 km/h (3 Bft)
17.04.2015 08:00 9,6 C 9,0 C 84 % 1014,4 hPa 0,7 mm 10,9 km/h (2 Bft) S 180 7,0 C 12,9 km/h (3 Bft)
17.04.2015 08:05 9,5 C 9,0 C 84 % 1014,4 hPa 0,0 mm 10,4 km/h (2 Bft) S-SO 157 6,9 C 6,0 km/h (2 Bft)
17.04.2015 08:10 9,4 C 9,1 C 84 % 1014,4 hPa 0,0 mm 7,0 km/h (2 Bft) N-NW 337 6,8 C 0,0 km/h (0 Bft)
17.04.2015 08:15 9,2 C 9,1 C 84 % 1014,4 hPa 0,0 mm 2,1 km/h (1 Bft) S 180 6,6 C 0,0 km/h (0 Bft)
17.04.2015 08:20 9,2 C 9,1 C 85 % 1014,4 hPa 0,0 mm 0,5 km/h (0 Bft) O-SO 112 6,8 C 0,0 km/h (0 Bft)
17.04.2015 08:25 9,3 C 9,2 C 86 % 1014,2 hPa 0,0 mm 0,0 km/h (0 Bft) O 90 7,1 C 0,0 km/h (0 Bft)
17.04.2015 08:30 9,4 C 9,3 C 86 % 1014,2 hPa 0,0 mm 0,0 km/h (0 Bft) NW 315 7,2 C 0,0 km/h (0 Bft)
17.04.2015 08:35 9,5 C 9,5 C 81 % 1014,2 hPa 0,0 mm 0,0 km/h (0 Bft) SW 225 6,4 C 0,0 km/h (0 Bft)
17.04.2015 08:40 9,6 C 9,6 C 86 % 1014,2 hPa 0,0 mm 0,0 km/h (0 Bft) O-SO 112 7,4 C 0,0 km/h (0 Bft)
17.04.2015 08:45 9,6 C 9,6 C 82 % 1014,1 hPa 0,0 mm 0,0 km/h (0 Bft) O-SO 112 6,7 C 0,0 km/h (0 Bft)
17.04.2015 08:50 9,7 C 9,7 C 88 % 1014,1 hPa 0,0 mm 0,0 km/h (0 Bft) SO 135 7,8 C 0,0 km/h (0 Bft)
17.04.2015 08:55 9,7 C 9,9 C 82 % 1014,1 hPa 0,0 mm 0,0 km/h (0 Bft) O-SO 112 6,8 C 0,0 km/h (0 Bft)
17.04.2015 09:00 9,8 C 9,8 C 88 % 1014,1 hPa 0,0 mm 0,0 km/h (0 Bft) O-SO 112 7,9 C 0,0 km/h (0 Bft)
17.04.2015 09:05 9,8 C 9,8 C 88 % 1014,2 hPa 0,0 mm 0,0 km/h (0 Bft) O-NO 67 7,9 C 0,0 km/h (0 Bft)
17.04.2015 09:10 9,8 C 9,8 C 88 % 1014,2 hPa 0,0 mm 0,0 km/h (0 Bft) NO 45 7,9 C 0,0 km/h (0 Bft)
17.04.2015 09:15 9,8 C 9,8 C 88 % 1014,2 hPa 0,0 mm 0,0 km/h (0 Bft) SO 135 7,9 C 0,0 km/h (0 Bft)
17.04.2015 09:20 9,7 C 9,9 C 83 % 1014,2 hPa 0,0 mm 0,8 km/h (0 Bft) W-SW 247 7,0 C 4,7 km/h (1 Bft)
17.04.2015 09:25 9,9 C 10,0 C 83 % 1014,3 hPa 0,0 mm 1,8 km/h (1 Bft) W 270 7,2 C 0,0 km/h (0 Bft)
17.04.2015 09:30 10,0 C 10,1 C 83 % 1014,3 hPa 0,0 mm 1,8 km/h (1 Bft) S-SW 202 7,2 C 2,6 km/h (1 Bft)
17.04.2015 09:35 10,1 C 10,2 C 83 % 1014,3 hPa 0,0 mm 3,4 km/h (1 Bft) W-SW 247 7,3 C 3,9 km/h (1 Bft)
17.04.2015 09:40 10,2 C 10,2 C 82 % 1014,3 hPa 0,0 mm 4,7 km/h (1 Bft) S 180 7,3 C 8,8 km/h (2 Bft)
17.04.2015 09:45 10,2 C 10,1 C 87 % 1014,5 hPa 0,0 mm 6,2 km/h (2 Bft) SW 225 8,1 C 8,8 km/h (2 Bft)
17.04.2015 09:50 10,2 C 10,2 C 82 % 1014,5 hPa 0,0 mm 6,2 km/h (2 Bft) W-SW 247 7,3 C 7,0 km/h (2 Bft)
17.04.2015 09:55 10,4 C 10,3 C 86 % 1014,5 hPa 0,0 mm 4,4 km/h (1 Bft) W-SW 247 8,2 C 7,0 km/h (2 Bft)
17.04.2015 10:00 10,4 C 10,3 C 86 % 1014,5 hPa 0,0 mm 4,7 km/h (1 Bft) S-SW 202 8,2 C 10,4 km/h (2 Bft)
17.04.2015 10:05 10,3 C 10,2 C 86 % 1014,7 hPa 0,7 mm 5,2 km/h (1 Bft) SW 225 8,1 C 9,6 km/h (2 Bft)
17.04.2015 10:10 10,3 C 10,1 C 85 % 1014,7 hPa 0,0 mm 6,0 km/h (2 Bft) W 270 7,9 C 11,7 km/h (2 Bft)
17.04.2015 10:15 10,3 C 10,1 C 85 % 1014,7 hPa 0,0 mm 7,0 km/h (2 Bft) S 180 7,9 C 7,8 km/h (2 Bft)
17.04.2015 10:20 10,3 C 10,1 C 85 % 1014,7 hPa 0,0 mm 6,7 km/h (2 Bft) SW 225 7,9 C 6,2 km/h (2 Bft)
17.04.2015 10:25 10,3 C 10,2 C 81 % 1014,5 hPa 0,0 mm 5,7 km/h (1 Bft) S 180 7,2 C 7,8 km/h (2 Bft)
17.04.2015 10:30 10,4 C 10,3 C 85 % 1014,5 hPa 0,0 mm 6,5 km/h (2 Bft) SW 225 8,0 C 6,5 km/h (2 Bft)
17.04.2015 10:35 10,5 C 10,3 C 85 % 1014,5 hPa 0,0 mm 6,5 km/h (2 Bft) SW 225 8,1 C 7,5 km/h (2 Bft)
17.04.2015 10:40 10,6 C 10,6 C 81 % 1014,5 hPa 0,0 mm 6,7 km/h (2 Bft) S 180 7,5 C 8,0 km/h (2 Bft)
17.04.2015 10:45 11,0 C 11,3 C 80 % 1014,4 hPa 0,0 mm 8,8 km/h (2 Bft) SW 225 7,7 C 8,5 km/h (2 Bft)
17.04.2015 10:50 11,3 C 11,8 C 80 % 1014,4 hPa 0,0 mm 8,5 km/h (2 Bft) S 180 8,0 C 15,3 km/h (3 Bft)
17.04.2015 10:55 11,5 C 12,6 C 79 % 1014,4 hPa 0,0 mm 8,5 km/h (2 Bft) W 270 8,0 C 9,3 km/h (2 Bft)
17.04.2015 11:00 11,6 C 13,2 C 79 % 1014,4 hPa 0,0 mm 9,3 km/h (2 Bft) S 180 8,1 C 15,8 km/h (3 Bft)
17.04.2015 11:05 11,7 C 13,4 C 78 % 1014,5 hPa 0,0 mm 10,1 km/h (2 Bft) S-SW 202 8,0 C 23,6 km/h (4 Bft)
17.04.2015 11:10 11,6 C 12,9 C 77 % 1014,5 hPa 0,0 mm 11,7 km/h (2 Bft) W-SW 247 7,7 C 8,0 km/h (2 Bft)
17.04.2015 11:15 11,5 C 12,5 C 77 % 1014,5 hPa 0,0 mm 10,9 km/h (2 Bft) S 180 7,6 C 7,3 km/h (2 Bft)
17.04.2015 11:20 11,5 C 12,7 C 77 % 1014,5 hPa 0,0 mm 8,5 km/h (2 Bft) W-SW 247 7,6 C 9,8 km/h (2 Bft)
17.04.2015 11:25 11,5 C 12,9 C 76 % 1014,6 hPa 0,0 mm 8,5 km/h (2 Bft) N-NW 337 7,4 C 7,3 km/h (2 Bft)
17.04.2015 11:30 11,5 C 12,8 C 76 % 1014,6 hPa 0,0 mm 8,3 km/h (2 Bft) S 180 7,4 C 12,4 km/h (3 Bft)
17.04.2015 11:35 11,5 C 12,5 C 76 % 1014,6 hPa 0,0 mm 6,5 km/h (2 Bft) SW 225 7,4 C 6,7 km/h (2 Bft)
17.04.2015 11:40 11,6 C 12,4 C 76 % 1014,6 hPa 0,0 mm 6,5 km/h (2 Bft) W-SW 247 7,5 C 7,8 km/h (2 Bft)
17.04.2015 11:45 11,7 C 12,6 C 76 % 1014,7 hPa 0,0 mm 6,5 km/h (2 Bft) W-SW 247 7,6 C 7,8 km/h (2 Bft)
17.04.2015 11:50 12,0 C 13,1 C 76 % 1014,7 hPa 0,0 mm 5,4 km/h (1 Bft) W-SW 247 7,9 C 6,5 km/h (2 Bft)
17.04.2015 11:55 12,2 C 13,9 C 76 % 1014,7 hPa 0,0 mm 6,0 km/h (2 Bft) W 270 8,1 C 6,0 km/h (2 Bft)
17.04.2015 12:00 12,2 C 13,9 C 76 % 1014,7 hPa 0,0 mm 7,8 km/h (2 Bft) W 270 8,1 C 11,9 km/h (2 Bft)
17.04.2015 12:05 12,1 C 13,6 C 75 % 1014,6 hPa 0,0 mm 8,5 km/h (2 Bft) W-SW 247 7,8 C 6,0 km/h (2 Bft)
17.04.2015 12:10 12,1 C 13,5 C 75 % 1014,6 hPa 0,0 mm 8,3 km/h (2 Bft) W 270 7,8 C 9,1 km/h (2 Bft)
17.04.2015 12:15 12,1 C 13,3 C 75 % 1014,6 hPa 0,0 mm 7,5 km/h (2 Bft) W 270 7,8 C 11,1 km/h (2 Bft)
17.04.2015 12:20 12,0 C 13,1 C 75 % 1014,6 hPa 0,0 mm 8,0 km/h (2 Bft) W 270 7,7 C 7,8 km/h (2 Bft)
17.04.2015 12:25 12,0 C 12,9 C 75 % 1014,6 hPa 0,0 mm 9,6 km/h (2 Bft) NW 315 7,7 C 27,2 km/h (4 Bft)
17.04.2015 12:30 12,1 C 13,1 C 75 % 1014,6 hPa 0,0 mm 10,1 km/h (2 Bft) W-SW 247 7,8 C 11,7 km/h (2 Bft)
17.04.2015 12:35 12,1 C 12,9 C 75 % 1014,6 hPa 0,0 mm 9,8 km/h (2 Bft) W-SW 247 7,8 C 7,3 km/h (2 Bft)
17.04.2015 12:40 12,1 C 12,5 C 75 % 1014,6 hPa 0,0 mm 10,9 km/h (2 Bft) SW 225 7,8 C 19,7 km/h (3 Bft)
17.04.2015 12:45 11,9 C 12,0 C 75 % 1014,5 hPa 0,0 mm 10,6 km/h (2 Bft) W-SW 247 7,6 C 30,0 km/h (5 Bft)
17.04.2015 12:50 11,9 C 12,0 C 76 % 1014,5 hPa 0,0 mm 9,3 km/h (2 Bft) S 180 7,8 C 8,8 km/h (2 Bft)
17.04.2015 12:55 11,7 C 11,7 C 76 % 1014,5 hPa 0,0 mm 7,0 km/h (2 Bft) SW 225 7,6 C 7,3 km/h (2 Bft)
17.04.2015 13:00 11,6 C 11,6 C 76 % 1014,5 hPa 0,0 mm 7,0 km/h (2 Bft) W-SW 247 7,5 C 9,8 km/h (2 Bft)
17.04.2015 13:05 11,4 C 11,4 C 77 % 1014,6 hPa 0,0 mm 5,7 km/h (1 Bft) W-SW 247 7,5 C 9,6 km/h (2 Bft)
17.04.2015 13:10 11,4 C 11,3 C 77 % 1014,6 hPa 0,0 mm 5,7 km/h (1 Bft) W-SW 247 7,5 C 4,7 km/h (1 Bft)
17.04.2015 13:15 11,3 C 11,3 C 78 % 1014,6 hPa 0,7 mm 6,2 km/h (2 Bft) S 180 7,6 C 11,4 km/h (2 Bft)
17.04.2015 13:20 11,3 C 11,3 C 78 % 1014,6 hPa 0,0 mm 6,7 km/h (2 Bft) W-SW 247 7,6 C 13,7 km/h (3 Bft)
17.04.2015 13:25 11,3 C 11,6 C 78 % 1014,3 hPa 0,0 mm 6,2 km/h (2 Bft) S-SW 202 7,6 C 4,9 km/h (1 Bft)
17.04.2015 13:30 11,5 C 11,8 C 78 % 1014,3 hPa 0,0 mm 5,2 km/h (1 Bft) W-SW 247 7,8 C 5,2 km/h (1 Bft)
17.04.2015 13:35 11,6 C 12,1 C 78 % 1014,3 hPa 0,0 mm 5,2 km/h (1 Bft) W-SW 247 7,9 C 12,4 km/h (3 Bft)
17.04.2015 13:40 11,7 C 12,3 C 78 % 1014,3 hPa 0,0 mm 5,7 km/h (1 Bft) W 270 8,0 C 10,4 km/h (2 Bft)
17.04.2015 13:45 12,0 C 12,7 C 78 % 1014,2 hPa 0,0 mm 7,0 km/h (2 Bft) W 270 8,3 C 8,8 km/h (2 Bft)
17.04.2015 13:50 12,1 C 12,7 C 78 % 1014,2 hPa 0,0 mm 6,7 km/h (2 Bft) W 270 8,4 C 13,2 km/h (3 Bft)
17.04.2015 13:55 12,1 C 12,8 C 78 % 1014,2 hPa 0,0 mm 7,0 km/h (2 Bft) S-SW 202 8,4 C 6,7 km/h (2 Bft)
17.04.2015 14:00 12,1 C 12,9 C 78 % 1014,2 hPa 0,0 mm 7,5 km/h (2 Bft) W 270 8,4 C 24,6 km/h (4 Bft)
17.04.2015 14:05 12,2 C 12,9 C 78 % 1014,2 hPa 0,0 mm 7,5 km/h (2 Bft) W-SW 247 8,5 C 4,7 km/h (1 Bft)
17.04.2015 14:10 12,3 C 13,0 C 78 % 1014,2 hPa 0,0 mm 7,8 km/h (2 Bft) W-NW 292 8,6 C 13,7 km/h (3 Bft)
17.04.2015 14:15 12,2 C 12,7 C 78 % 1014,2 hPa 0,0 mm 7,5 km/h (2 Bft) W 270 8,5 C 7,5 km/h (2 Bft)
17.04.2015 14:20 12,1 C 12,5 C 77 % 1014,2 hPa 0,0 mm 8,0 km/h (2 Bft) W-SW 247 8,2 C 8,0 km/h (2 Bft)
17.04.2015 14:25 12,1 C 12,5 C 77 % 1013,9 hPa 0,0 mm 6,7 km/h (2 Bft) W 270 8,2 C 8,8 km/h (2 Bft)
17.04.2015 14:30 12,1 C 12,6 C 77 % 1013,9 hPa 0,0 mm 6,7 km/h (2 Bft) W-SW 247 8,2 C 13,5 km/h (3 Bft)
17.04.2015 14:35 12,0 C 12,6 C 77 % 1013,9 hPa 0,0 mm 8,3 km/h (2 Bft) S 180 8,1 C 8,8 km/h (2 Bft)
17.04.2015 14:40 12,0 C 12,8 C 77 % 1013,9 hPa 0,0 mm 7,5 km/h (2 Bft) W-NW 292 8,1 C 7,8 km/h (2 Bft)
17.04.2015 14:45 12,1 C 13,0 C 77 % 1013,9 hPa 0,0 mm 7,0 km/h (2 Bft) W-SW 247 8,2 C 5,4 km/h (1 Bft)
17.04.2015 14:50 12,1 C 13,1 C 77 % 1013,9 hPa 0,0 mm 7,0 km/h (2 Bft) W-SW 247 8,2 C 9,8 km/h (2 Bft)
17.04.2015 14:55 12,1 C 13,2 C 77 % 1013,9 hPa 0,0 mm 8,8 km/h (2 Bft) W-SW 247 8,2 C 20,2 km/h (4 Bft)
17.04.2015 15:00 12,0 C 13,1 C 77 % 1013,9 hPa 0,0 mm 10,6 km/h (2 Bft) W-SW 247 8,1 C 17,6 km/h (3 Bft)
17.04.2015 15:05 12,0 C 13,0 C 77 % 1013,9 hPa 0,0 mm 12,9 km/h (3 Bft) NW 315 8,1 C 21,5 km/h (4 Bft)
17.04.2015 15:10 12,0 C 12,8 C 77 % 1013,9 hPa 0,0 mm 12,7 km/h (3 Bft) W-SW 247 8,1 C 15,3 km/h (3 Bft)
17.04.2015 15:15 12,0 C 12,8 C 77 % 1013,9 hPa 0,0 mm 12,9 km/h (3 Bft) W 270 8,1 C 18,9 km/h (3 Bft)
17.04.2015 15:20 11,8 C 12,6 C 77 % 1013,9 hPa 0,0 mm 11,9 km/h (2 Bft) W 270 7,9 C 12,9 km/h (3 Bft)
17.04.2015 15:25 11,5 C 12,2 C 77 % 1013,9 hPa 0,0 mm 13,7 km/h (3 Bft) W-SW 247 7,6 C 21,5 km/h (4 Bft)
17.04.2015 15:30 11,5 C 11,7 C 77 % 1013,9 hPa 0,0 mm 14,5 km/h (3 Bft) W 270 7,6 C 17,3 km/h (3 Bft)
17.04.2015 15:35 11,3 C 11,4 C 77 % 1013,9 hPa 0,0 mm 15,3 km/h (3 Bft) W-NW 292 7,4 C 30,6 km/h (5 Bft)
17.04.2015 15:40 11,3 C 11,3 C 78 % 1013,9 hPa 0,0 mm 15,5 km/h (3 Bft) W 270 7,6 C 15,5 km/h (3 Bft)
17.04.2015 15:45 11,1 C 11,0 C 78 % 1014,1 hPa 0,0 mm 10,6 km/h (2 Bft) W-SW 247 7,4 C 7,5 km/h (2 Bft)
17.04.2015 15:50 11,1 C 11,0 C 79 % 1014,1 hPa 0,0 mm 8,0 km/h (2 Bft) W 270 7,6 C 6,2 km/h (2 Bft)
17.04.2015 15:55 10,9 C 10,8 C 80 % 1014,1 hPa 0,0 mm 6,7 km/h (2 Bft) W 270 7,6 C 11,1 km/h (2 Bft)
17.04.2015 16:00 10,8 C 10,7 C 81 % 1014,1 hPa 0,0 mm 6,2 km/h (2 Bft) W-SW 247 7,7 C 3,4 km/h (1 Bft)
17.04.2015 16:05 10,6 C 10,5 C 81 % 1013,9 hPa 0,0 mm 6,2 km/h (2 Bft) W 270 7,5 C 3,9 km/h (1 Bft)
17.04.2015 16:10 10,6 C 10,4 C 81 % 1013,9 hPa 0,0 mm 6,0 km/h (2 Bft) W 270 7,5 C 8,8 km/h (2 Bft)
17.04.2015 16:15 10,5 C 10,3 C 81 % 1013,9 hPa 0,0 mm 6,0 km/h (2 Bft) W-SW 247 7,4 C 7,0 km/h (2 Bft)
17.04.2015 16:20 10,5 C 10,3 C 81 % 1013,9 hPa 0,0 mm 6,7 km/h (2 Bft) W-SW 247 7,4 C 6,0 km/h (2 Bft)
17.04.2015 16:25 10,5 C 10,3 C 81 % 1013,9 hPa 0,0 mm 7,0 km/h (2 Bft) SW 225 7,4 C 9,1 km/h (2 Bft)
17.04.2015 16:30 10,5 C 10,3 C 82 % 1013,9 hPa 0,0 mm 6,7 km/h (2 Bft) W-SW 247 7,6 C 6,2 km/h (2 Bft)
17.04.2015 16:35 10,5 C 10,4 C 81 % 1013,9 hPa 0,0 mm 7,0 km/h (2 Bft) W 270 7,4 C 10,6 km/h (2 Bft)
17.04.2015 16:40 10,5 C 10,5 C 79 % 1013,9 hPa 0,0 mm 6,7 km/h (2 Bft) W-SW 247 7,0 C 4,9 km/h (1 Bft)
17.04.2015 16:45 10,5 C 10,5 C 79 % 1013,8 hPa 0,0 mm 7,3 km/h (2 Bft) S-SW 202 7,0 C 9,3 km/h (2 Bft)
17.04.2015 16:50 10,5 C 10,6 C 79 % 1013,8 hPa 0,0 mm 6,0 km/h (2 Bft) W 270 7,0 C 3,4 km/h (1 Bft)
17.04.2015 16:55 10,5 C 10,6 C 79 % 1013,8 hPa 0,0 mm 5,4 km/h (1 Bft) W-SW 247 7,0 C 11,4 km/h (2 Bft)
17.04.2015 17:00 10,5 C 10,6 C 79 % 1013,8 hPa 0,0 mm 5,7 km/h (1 Bft) W-SW 247 7,0 C 7,0 km/h (2 Bft)
17.04.2015 17:05 10,6 C 10,8 C 79 % 1013,6 hPa 0,0 mm 6,5 km/h (2 Bft) W 270 7,1 C 6,5 km/h (2 Bft)
17.04.2015 17:10 10,6 C 10,7 C 79 % 1013,6 hPa 0,0 mm 6,2 km/h (2 Bft) W 270 7,1 C 7,3 km/h (2 Bft)
17.04.2015 17:15 10,5 C 10,4 C 81 % 1013,6 hPa 0,0 mm 5,4 km/h (1 Bft) S-SW 202 7,4 C 4,9 km/h (1 Bft)
17.04.2015 17:20 10,4 C 10,3 C 81 % 1013,6 hPa 0,0 mm 4,9 km/h (1 Bft) SW 225 7,3 C 7,0 km/h (2 Bft)
17.04.2015 17:25 10,2 C 10,0 C 82 % 1013,8 hPa 0,0 mm 5,4 km/h (1 Bft) W-NW 292 7,3 C 8,5 km/h (2 Bft)
17.04.2015 17:30 10,1 C 9,9 C 82 % 1013,8 hPa 0,0 mm 6,5 km/h (2 Bft) W-SW 247 7,2 C 15,3 km/h (3 Bft)
17.04.2015 17:35 10,0 C 9,8 C 83 % 1013,8 hPa 0,0 mm 7,5 km/h (2 Bft) W-NW 292 7,2 C 9,6 km/h (2 Bft)
17.04.2015 17:40 10,0 C 9,8 C 83 % 1013,8 hPa 0,0 mm 6,7 km/h (2 Bft) W-SW 247 7,2 C 5,2 km/h (1 Bft)
17.04.2015 17:45 9,9 C 9,7 C 83 % 1014,1 hPa 0,7 mm 4,7 km/h (1 Bft) W 270 7,2 C 12,2 km/h (2 Bft)
17.04.2015 17:50 9,8 C 9,6 C 84 % 1014,1 hPa 0,0 mm 4,4 km/h (1 Bft) W-NW 292 7,2 C 6,2 km/h (2 Bft)
17.04.2015 17:55 9,8 C 9,6 C 84 % 1014,1 hPa 0,7 mm 4,1 km/h (1 Bft) W 270 7,2 C 5,2 km/h (1 Bft)
17.04.2015 18:00 9,7 C 9,6 C 81 % 1014,1 hPa 0,0 mm 4,7 km/h (1 Bft) W-NW 292 6,6 C 9,6 km/h (2 Bft)
17.04.2015 18:05 9,3 C 9,2 C 84 % 1014,2 hPa 0,0 mm 6,7 km/h (2 Bft) W 270 6,7 C 7,8 km/h (2 Bft)
17.04.2015 18:10 9,1 C 8,8 C 85 % 1014,2 hPa 0,7 mm 8,8 km/h (2 Bft) W 270 6,7 C 15,3 km/h (3 Bft)
17.04.2015 18:15 8,9 C 8,6 C 85 % 1014,2 hPa 0,0 mm 7,8 km/h (2 Bft) W-NW 292 6,5 C 5,2 km/h (1 Bft)
17.04.2015 18:20 8,8 C 8,6 C 85 % 1014,2 hPa 0,0 mm 6,2 km/h (2 Bft) W-SW 247 6,4 C 8,3 km/h (2 Bft)
17.04.2015 18:25 8,8 C 8,6 C 85 % 1014,0 hPa 0,7 mm 3,6 km/h (1 Bft) W 270 6,4 C 4,7 km/h (1 Bft)
17.04.2015 18:30 8,7 C 8,6 C 85 % 1014,0 hPa 0,7 mm 3,4 km/h (1 Bft) W-SW 247 6,3 C 0,0 km/h (0 Bft)
17.04.2015 18:35 8,7 C 8,6 C 82 % 1014,0 hPa 0,0 mm 1,8 km/h (1 Bft) SW 225 5,8 C 0,0 km/h (0 Bft)
17.04.2015 18:40 8,7 C 8,6 C 82 % 1014,0 hPa 0,0 mm 0,8 km/h (0 Bft) W-NW 292 5,8 C 3,1 km/h (1 Bft)
17.04.2015 18:45 8,8 C 8,7 C 85 % 1014,0 hPa 0,7 mm 1,6 km/h (1 Bft) S-SW 202 6,4 C 3,1 km/h (1 Bft)
17.04.2015 18:50 8,7 C 8,7 C 82 % 1014,0 hPa 0,0 mm 2,6 km/h (1 Bft) W-SW 247 5,8 C 5,2 km/h (1 Bft)
17.04.2015 18:55 8,7 C 8,6 C 86 % 1014,0 hPa 0,0 mm 3,9 km/h (1 Bft) S 180 6,5 C 6,5 km/h (2 Bft)
17.04.2015 19:00 8,7 C 8,6 C 87 % 1014,0 hPa 0,7 mm 5,7 km/h (1 Bft) S 180 6,7 C 13,2 km/h (3 Bft)
17.04.2015 19:05 8,8 C 8,6 C 87 % 1014,4 hPa 0,0 mm 7,0 km/h (2 Bft) W-SW 247 6,8 C 14,8 km/h (3 Bft)
17.04.2015 19:10 8,9 C 8,7 C 88 % 1014,4 hPa 0,7 mm 7,0 km/h (2 Bft) SW 225 7,0 C 8,5 km/h (2 Bft)
17.04.2015 19:15 8,9 C 8,8 C 88 % 1014,4 hPa 0,0 mm 5,4 km/h (1 Bft) W-SW 247 7,0 C 13,5 km/h (3 Bft)
17.04.2015 19:16 8,9 C 8,8 C 88 % 1014,4 hPa 0,0 mm 3,9 km/h (1 Bft) SW 225 7,0 C 10,9 km/h (2 Bft)
17.04.2015 19:20 8,9 C 8,8 C 88 % 1014,4 hPa 0,0 mm 3,9 km/h (1 Bft) SW 225 7,0 C 10,9 km/h (2 Bft)
17.04.2015 19:25 8,9 C 8,8 C 88 % 1014,5 hPa 0,7 mm 5,2 km/h (1 Bft) O-NO 67 7,0 C 13,2 km/h (3 Bft)
17.04.2015 19:30 8,9 C 8,7 C 88 % 1014,5 hPa 0,7 mm 6,7 km/h (2 Bft) W-NW 292 7,0 C 14,0 km/h (3 Bft)
17.04.2015 19:35 8,9 C 8,5 C 88 % 1014,5 hPa 0,0 mm 9,6 km/h (2 Bft) W 270 7,0 C 13,2 km/h (3 Bft)
17.04.2015 19:36 8,8 C 8,5 C 88 % 1014,5 hPa 2,1 mm 8,8 km/h (2 Bft) W 270 6,9 C 12,9 km/h (3 Bft)
17.04.2015 19:42 8,7 C 8,4 C 88 % 1014,8 hPa 0,0 mm 7,8 km/h (2 Bft) W 270 6,8 C 6,5 km/h (2 Bft)
17.04.2015 19:45 8,7 C 8,4 C 88 % 1014,8 hPa 0,0 mm 7,8 km/h (2 Bft) W 270 6,8 C 6,5 km/h (2 Bft)
17.04.2015 19:50 8,7 C 8,4 C 88 % 1014,8 hPa 0,0 mm 7,3 km/h (2 Bft) W 270 6,8 C 4,1 km/h (1 Bft)
17.04.2015 19:55 8,7 C 8,6 C 88 % 1014,8 hPa 0,0 mm 4,4 km/h (1 Bft) W 270 6,8 C 3,1 km/h (1 Bft)
17.04.2015 20:00 8,7 C 8,6 C 88 % 1014,8 hPa 0,7 mm 3,1 km/h (1 Bft) W-NW 292 6,8 C 12,2 km/h (2 Bft)
17.04.2015 20:05 8,6 C 8,5 C 88 % 1015,1 hPa 0,7 mm 3,4 km/h (1 Bft) NW 315 6,7 C 0,0 km/h (0 Bft)
17.04.2015 20:10 8,6 C 8,5 C 88 % 1015,1 hPa 0,0 mm 3,6 km/h (1 Bft) NO 45 6,7 C 0,0 km/h (0 Bft)
17.04.2015 20:15 8,6 C 8,5 C 88 % 1015,1 hPa 2,1 mm 2,6 km/h (1 Bft) N 360 6,7 C 4,1 km/h (1 Bft)
17.04.2015 20:20 8,5 C 8,4 C 88 % 1015,1 hPa 1,4 mm 2,8 km/h (1 Bft) S 180 6,6 C 4,1 km/h (1 Bft)
17.04.2015 20:25 8,4 C 8,3 C 88 % 1015,0 hPa 0,0 mm 4,7 km/h (1 Bft) W 270 6,5 C 11,4 km/h (2 Bft)
17.04.2015 20:30 8,4 C 8,3 C 88 % 1014,9 hPa 0,7 mm 5,2 km/h (1 Bft) W-NW 292 6,5 C 8,8 km/h (2 Bft)
17.04.2015 20:35 8,3 C 8,2 C 88 % 1014,7 hPa 0,0 mm 5,2 km/h (1 Bft) W 270 6,4 C 9,1 km/h (2 Bft)
17.04.2015 20:40 8,3 C 8,2 C 88 % 1014,5 hPa 0,0 mm 4,4 km/h (1 Bft) W 270 6,4 C 0,0 km/h (0 Bft)
17.04.2015 20:45 8,3 C 8,2 C 88 % 1014,3 hPa 0,7 mm 3,9 km/h (1 Bft) NW 315 6,4 C 7,8 km/h (2 Bft)
17.04.2015 20:50 8,2 C 8,1 C 88 % 1014,1 hPa 0,0 mm 4,1 km/h (1 Bft) W 270 6,3 C 2,6 km/h (1 Bft)
17.04.2015 20:51 8,1 C 8,0 C 88 % 1013,8 hPa 0,0 mm 4,7 km/h (1 Bft) W-SW 247 6,2 C 11,4 km/h (2 Bft)
17.04.2015 20:56 8,1 C 8,0 C 88 % 1013,8 hPa 0,7 mm 3,6 km/h (1 Bft) W 270 6,2 C 5,4 km/h (1 Bft)
17.04.2015 21:00 8,1 C 8,0 C 88 % 1013,8 hPa 0,0 mm 3,6 km/h (1 Bft) W 270 6,2 C 5,4 km/h (1 Bft)
17.04.2015 21:05 8,0 C 7,9 C 88 % 1013,8 hPa 0,0 mm 2,8 km/h (1 Bft) W-SW 247 6,1 C 0,0 km/h (0 Bft)
17.04.2015 21:10 8,0 C 7,9 C 88 % 1013,8 hPa 0,0 mm 1,6 km/h (1 Bft) W-SW 247 6,1 C 4,1 km/h (1 Bft)
17.04.2015 21:15 8,0 C 7,9 C 88 % 1014,3 hPa 0,0 mm 1,8 km/h (1 Bft) W 270 6,1 C 6,5 km/h (2 Bft)
17.04.2015 21:20 7,9 C 7,8 C 88 % 1014,3 hPa 0,0 mm 5,7 km/h (1 Bft) N-NW 337 6,0 C 19,9 km/h (4 Bft)
17.04.2015 21:25 7,8 C 7,4 C 88 % 1014,3 hPa 0,7 mm 8,5 km/h (2 Bft) N-NO 22 5,9 C 8,8 km/h (2 Bft)
17.04.2015 21:30 7,7 C 7,5 C 88 % 1014,3 hPa 0,0 mm 6,5 km/h (2 Bft) NW 315 5,8 C 7,0 km/h (2 Bft)
17.04.2015 21:35 7,5 C 7,4 C 88 % 1014,6 hPa 0,0 mm 3,1 km/h (1 Bft) W-NW 292 5,6 C 4,4 km/h (1 Bft)
17.04.2015 21:40 7,5 C 7,4 C 88 % 1014,6 hPa 0,7 mm 2,8 km/h (1 Bft) N-NO 22 5,6 C 0,0 km/h (0 Bft)
17.04.2015 21:45 7,4 C 7,3 C 88 % 1014,6 hPa 0,0 mm 1,6 km/h (1 Bft) NW 315 5,5 C 0,0 km/h (0 Bft)
17.04.2015 21:50 7,4 C 7,2 C 87 % 1014,6 hPa 0,0 mm 0,5 km/h (0 Bft) SO 135 5,4 C 0,0 km/h (0 Bft)
17.04.2015 21:55 7,4 C 7,2 C 88 % 1014,8 hPa 0,7 mm 0,0 km/h (0 Bft) W 270 5,5 C 0,0 km/h (0 Bft)
17.04.2015 22:00 7,4 C 7,2 C 88 % 1014,8 hPa 0,0 mm 0,0 km/h (0 Bft) W-NW 292 5,5 C 0,0 km/h (0 Bft)
17.04.2015 22:05 7,4 C 7,2 C 88 % 1014,8 hPa 0,7 mm 0,3 km/h (0 Bft) W-SW 247 5,5 C 0,0 km/h (0 Bft)
17.04.2015 22:10 7,3 C 7,2 C 88 % 1014,8 hPa 0,0 mm 0,3 km/h (0 Bft) W-SW 247 5,4 C 0,0 km/h (0 Bft)
17.04.2015 22:15 7,3 C 7,2 C 88 % 1015,1 hPa 0,7 mm 2,6 km/h (1 Bft) O-NO 67 5,4 C 13,2 km/h (3 Bft)
17.04.2015 22:20 7,1 C 6,9 C 88 % 1015,1 hPa 0,0 mm 6,0 km/h (2 Bft) NW 315 5,2 C 9,8 km/h (2 Bft)
17.04.2015 22:25 6,8 C 6,4 C 88 % 1015,1 hPa 0,0 mm 9,1 km/h (2 Bft) W-SW 247 5,0 C 5,2 km/h (1 Bft)
17.04.2015 22:30 6,7 C 6,4 C 88 % 1015,1 hPa 0,7 mm 7,0 km/h (2 Bft) W-NW 292 4,9 C 3,4 km/h (1 Bft)
17.04.2015 22:35 6,6 C 6,5 C 88 % 1015,4 hPa 0,0 mm 3,4 km/h (1 Bft) W-NW 292 4,8 C 0,0 km/h (0 Bft)
17.04.2015 22:40 6,5 C 6,3 C 87 % 1015,4 hPa 0,0 mm 3,9 km/h (1 Bft) W 270 4,5 C 0,0 km/h (0 Bft)
17.04.2015 22:45 6,4 C 6,2 C 87 % 1015,4 hPa 0,7 mm 3,4 km/h (1 Bft) W-SW 247 4,4 C 0,0 km/h (0 Bft)
17.04.2015 22:50 6,3 C 6,2 C 87 % 1015,4 hPa 0,0 mm 1,8 km/h (1 Bft) W 270 4,3 C 0,0 km/h (0 Bft)
17.04.2015 22:55 6,3 C 6,1 C 87 % 1015,4 hPa 0,0 mm 0,3 km/h (0 Bft) W-NW 292 4,3 C 0,0 km/h (0 Bft)
17.04.2015 23:00 6,3 C 6,1 C 87 % 1015,4 hPa 0,0 mm 0,0 km/h (0 Bft) W-SW 247 4,3 C 0,0 km/h (0 Bft)
17.04.2015 23:05 6,2 C 6,1 C 87 % 1015,4 hPa 0,7 mm 0,0 km/h (0 Bft) S-SW 202 4,2 C 0,0 km/h (0 Bft)
17.04.2015 23:10 6,1 C 6,0 C 87 % 1015,4 hPa 0,0 mm 0,0 km/h (0 Bft) S-SW 202 4,1 C 0,0 km/h (0 Bft)
17.04.2015 23:15 6,0 C 5,9 C 87 % 1015,4 hPa 0,0 mm 0,0 km/h (0 Bft) S 180 4,0 C 0,0 km/h (0 Bft)
17.04.2015 23:20 6,0 C 5,9 C 87 % 1015,4 hPa 0,0 mm 0,3 km/h (0 Bft) NW 315 4,0 C 4,7 km/h (1 Bft)
17.04.2015 23:25 6,0 C 5,9 C 87 % 1015,4 hPa 0,7 mm 2,3 km/h (1 Bft) W-NW 292 4,0 C 3,4 km/h (1 Bft)
17.04.2015 23:30 5,9 C 5,8 C 88 % 1015,4 hPa 0,0 mm 2,6 km/h (1 Bft) W 270 4,1 C 0,0 km/h (0 Bft)
17.04.2015 23:35 5,9 C 5,7 C 88 % 1015,5 hPa 0,0 mm 0,5 km/h (0 Bft) SW 225 4,1 C 0,0 km/h (0 Bft)
17.04.2015 23:40 5,8 C 5,7 C 88 % 1015,5 hPa 0,0 mm 0,3 km/h (0 Bft) S-SW 202 4,0 C 2,6 km/h (1 Bft)
17.04.2015 23:45 5,8 C 5,6 C 88 % 1015,5 hPa 0,0 mm 0,5 km/h (0 Bft) S-SO 157 4,0 C 0,0 km/h (0 Bft)
17.04.2015 23:50 5,7 C 5,6 C 88 % 1015,5 hPa 0,0 mm 0,3 km/h (0 Bft) S 180 3,9 C 0,0 km/h (0 Bft)
17.04.2015 23:55 5,7 C 5,6 C 88 % 1015,8 hPa 0,7 mm 0,3 km/h (0 Bft) S 180 3,9 C 0,0 km/h (0 Bft)
_ Min-Zeit 23:55 23:55 00:00 17:20 - 23:15 - - 00:00 23:55
Minimum _ 5,7 C 5,6 C 50 % 1013,6 hPa - 0,0 km/h (0 Bft) - - 3,1 C 0,0 km/h (0 Bft)
_ Max-Zeit 00:25 12:00 23:55 01:20 20:15 15:40 - - 14:10 15:35
Maximum _ 13,5 C 13,9 C 88 % 1015,9 hPa 2,1 mm 15,5 km/h
W (3 Bft)
- - 8,6 C 30,6 km/h
W-NW (5 Bft)
Durchschnitt _ 10,0 C 10,0 C 79 % 1014,5 hPa #28,9 mm 5,1 km/h (1 Bft) W-SW - 6,5 C 6,8 km/h (2 Bft)